Hourly Data Report for September 03, 2017

All times are specified in Local Standard Time (LST). Add 1 hour to adjust for Daylight Saving Time where and when it is observed.

GRAND MANAN SAR CS
NEW BRUNSWICK

44°42'43.400" N
66°48'06.900" W
78.20 m
8101925
71030
XGM

Download Data

Hourly Data (September 2017)
Hourly Data Report for September 3, 2017
Temp Definition
°C
Dew Point Temp Definition
°C
Rel Hum Definition
%
Wind Dir Definition
10's deg

Wind Spd Definition
km/h
Visibility Definition
km
Stn Press Definition
kPa
Hmdx Definition


Wind Chill Definition


Weather Definition


TIME
00:00 6.9 6.2 95 24 1   101.39     LegendNANA
01:00 7.7 7.3 97 23 2   101.39     LegendNANA
02:00 7.5 7.1 97 23 2   101.38     LegendNANA
03:00 8.5 8.1 97 24 3   101.38     LegendNANA
04:00 7.5 7.1 97   0   101.38     LegendNANA
05:00 6.1 5.7 97 24 1   101.35     LegendNANA
06:00 5.9 5.6 98 24 1   101.40     LegendNANA
07:00 9.3 9.1 99 20 6   101.48     LegendNANA
08:00 13.5 12.9 96 21 9   101.50     LegendNANA
09:00 14.3 11.5 83 19 7   101.46     LegendNANA
10:00 13.9 10.8 82 16 14   101.40     LegendNANA
11:00 14.3 8.8 69 16 13   101.39     LegendNANA
12:00 14.7 9.0 69 16 12   101.32     LegendNANA
13:00 14.9 9.5 70 16 12   101.26     LegendNANA
14:00 15.9 9.5 66 14 16   101.16     LegendNANA
15:00 16.0 10.2 68 11 17   101.05     LegendNANA
16:00 15.2 10.7 74 12 15   100.97     LegendNANA
17:00 14.2 10.9 81 10 15   100.83     LegendNANA
18:00 14.3 10.5 78 11 14   100.71     LegendNANA
19:00 13.6 11.0 84 10 16   100.56     LegendNANA
20:00 12.3 11.8 97 10 19   100.45     LegendNANA
21:00 12.3 12.0 98 10 20   100.27     LegendNANA
22:00 12.2 12.0 99 8 23   100.07     LegendNANA
23:00 12.5 12.3 99 9 19   99.89     LegendNANA

Notes on Data Quality.

Legend

  • E = Estimated
  • M = Missing
  • NA = Not Available
  • ‡ = Partner data that is not subject to review by the National Climate Archives
Date modified: